Location: Unspecified
(0.0000°N, 0.0000°E)
Time: 00:59:53
(UTC+00:00)

Vanguard 2 Rocket - Pass Details

Date: 09 December 2017
Orbit: 553 x 3328 km, 32.9° (Epoch: 21 June)

Event Time Altitude Azimuth Distance (km) Brightness Sun altitude
Rises 06:28:21 0° 288° (WNW) 5,972 10.4 8.3°
Reaches altitude 10° 06:33:29 10° 280° (W) 4,466 9.8 9.5°
Maximum altitude 06:43:00 32° 222° (SW) 2,165 8.8 11.7°
Drops below altitude 10° 06:48:57 10° 160° (SSE) 2,737 10.1 13.0°
Sets 06:51:21 0° 149° (SSE) 3,423 10.8 13.6°
